User: anonymous   Login
Location: Mount Tamalpais State Park
(37.9108°N, 122.6128°W)
Time: 00:28:56
(UTC-08:00)
Language:

Cosmos 1814 Rocket - Orbit

View from above orbital plane
View from above orbital plane
View from above satellite
View from above satellite

Ground track
Ground track

The orbit data is extracted from the following two-line orbital elements,

1 17304U 87006B   16339.80132838  .00000046  00000-0  24081-4 0  9990
2 17304  74.0597  87.9508 0030362 333.5307  26.4294 14.37587246565363
Epoch (UTC): 04 December 2016 19:13:54
Eccentricity: 0.0030362
inclination: 74.0597°
perigee height: 745 km
apogee height: 788 km
right ascension of ascending node: 87.9508°
argument of perigee: 333.5307°
revolutions per day: 14.37587246
mean anomaly at epoch: 26.4294°
orbit number at epoch: 56536

The dashed part of the orbit path shows where the satellite is in the earth's shadow,  

DLR